Location: Woodhurst
(52.3667°N, 0.0667°W)
Time: 19:24:35
(UTC+00:00)

USA 186 - Pass Details

Date: 19 May 2025
Orbit: 338 x 359 km, 97.0° (Epoch: 19 May)

Event Time Altitude Azimuth Distance (km) Brightness Sun altitude
Rises 20:34:54 0° 201° (SSW) 2,119 5.1 -5.4°
Reaches altitude 10° 20:37:14 10° 223° (SW) 1,288 4.2 -5.7°
Maximum altitude 20:39:07 17° 267° (W) 973 4.2 -5.9°
Drops below altitude 10° 20:41:02 10° 311° (NW) 1,300 6.1 -6.1°
Sets 20:43:24 0° 333° (NNW) 2,151 7.1 -6.4°
